Tracking 30986 objects as of 9-Jul-2025
HD Live streaming from Space Station
objects crossing your sky now

FREGAT R/B

Track FREGAT R/B now!


NORAD ID: 40546
Int'l Code: 2015-017C
Perigee: 23,506.0 km
Apogee: 23,607.2 km
Inclination: 57.0 °
Period: 858.8 minutes
Semi major axis: 29927 km
RCS: Unknown
Launch date: March 27, 2015
Source: Commonwealth of Independent States (former USSR) (CIS)
Launch site: FRENCH GUIANA (FRGUI)

Note: This is a ROCKET BODY
Your satellite tracking list
Your tracking list is empty




NASA's NSSDC Master Catalog

Two Line Element Set (TLE):
1 40546U 15017C   25186.46864734 -.00000088  00000-0  00000-0 0  9994
2 40546  57.0482 354.7003 0016895 223.1473 136.7287  1.67685437 62931
Source of the keplerian elements: AFSPC